Regional Weather Roundup
Issued by NWS

Home | Current Version | Previous Version | Text Only | Print | Product List | Glossary On
Versions: 1 2 3 4 5 6 7 8 9 10 11 12 13 14 15 16 17 18 19 20 21 22 23 24 25 26 27 28 29 30 31 32 33 34 35 36 37 38 39 40 41 42 43 44 45 46 47 48 49 50
000
ASUS44 KLUB 280101
RWRTX
WEST TEXAS WEATHER ROUNDUP
NATIONAL WEATHER SERVICE LUBBOCK TX
700 PM CST MON FEB 27 2017

NOTE: "FAIR" INDICATES FEW OR NO CLOUDS BELOW 12,000 FEET WITH NO
SIGNIFICANT WEATHER AND/OR OBSTRUCTIONS TO VISIBILITY.

TXZ004-006>008-010-012-014-016-OKZ002-280200-
TEXAS PANHANDLE/OKLAHOMA PANHANDLE

CITY           SKY/WX    TMP DP  RH WIND       PRES   REMARKS
AMARILLO       CLOUDY    60  16  18 SW13      29.78R
BORGER         CLEAR     66  18  15 S14       29.73R
CANADIAN       CLEAR     63  21  20 S10       29.73R
DALHART        CLEAR     61   9  12 SW17      29.75R
DUMAS          CLEAR     58  12  16 SW9       29.75R
GUYMON         CLEAR     63  12  13 S16       29.66R
HEREFORD       PTCLDY    63  19  18 SW9       29.80S
PAMPA          CLOUDY    62  19  18 SW14      29.76S
PERRYTON       CLEAR     65  20  17 SW15      29.70S
$$

TXZ026-029-035-045-048-280200-
SOUTHERN PANHANDLE/SOUTH PLAINS/ROLLING PLAINS

CITY           SKY/WX    TMP DP  RH WIND       PRES   REMARKS
CHILDRESS      CLOUDY    70  21  15 SW12      29.76S
SEMINOLE       CLOUDY    65  21  19 SW9       29.89R
LUBBOCK        CLOUDY    66  14  13 SW12      29.82R
PLAINVIEW      PTCLDY    62  17  17 SW9       29.80R
SNYDER         CLOUDY    68  25  19 S8        29.86R
$$

TXZ052-054-060>062-072-078-127-140-154-169-280200-
PERMIAN BASIN/CONCHO VALLEY/BIG COUNTRY/EDWARDS PLATEAU

CITY           SKY/WX    TMP DP  RH WIND       PRES   REMARKS
ABILENE        CLEAR     69  46  43 S7        29.85R
BIG SPRING     CLEAR     66  24  20 S7        29.88R
JUNCTION       CLEAR     76  49  38 S6        29.87R
MIDLAND        PTCLDY    70  19  14 W12       29.87R
ODESSA         PTCLDY    70  18  13 W7        29.88R
SAN ANGELO     CLEAR     73  44  35 S7        29.86R
SONORA         CLEAR     72  41  33 CALM      29.93R
SWEETWATER     CLOUDY    71  20  14 S9        29.89R
WINK           PTCLDY    68  16  13 W7        29.86R
$$

TXZ055-058-074-075-080-082-280200-
FAR WEST/SOUTHWEST MOUNTAINS/TRANS PECOS

CITY           SKY/WX    TMP DP  RH WIND       PRES   REMARKS
ALPINE         PTCLDY    68  20  16 S10       30.02R
DRYDEN           N/A     76  43  30 SE9       29.86R
EL PASO        CLOUDY    69  25  19 W26G37    29.90R
FORT STOCKTON  CLEAR     73  16  11 W6        29.89R
MARFA          CLOUDY    65  21  18 S9        29.99R
PECOS          PTCLDY    73  21  14 W3        29.85S
PRESIDIO       FAIR      78  23  13 S5        29.90S
$$

TXZ014-016-019-021>030-083-280200
TEXAS TECH WEST TEXAS MESONET/TEXAS PANHANDLE/NORTHERN SOUTH PLAINS

CITY           SKY/WX    TMP DP  RH WIND       PRES   REMARKS
ABERNATHY 5ENE   N/A     63  17  16 S13       29.82R
AMARILLO 9NNE    N/A     63  18  17 S9        29.76R
AMARILLO 7SSE    N/A     61  15  16 SW8       29.79S
AMHERST 1NE      N/A     65  13  13 S14       29.82R
BOOTLEG 11WNW    N/A     57  14  18 SW13      29.82R
CANADIAN 6E      N/A     64  21  19 S8        29.71R
CAPROCK CYN SP   N/A     62  19  19 S8        29.78R
CHILDRESS 2NNE   N/A     71  20  15 S10       29.75S
CLARENDON 2WSW   N/A     61  17  18 SW12      29.76S
CLAUDE 12SW      N/A     66  14  13 SW10      29.78S
DIMMITT 2NE      N/A     59  19  21 SW8       29.81R
FLOYDADA 2NNE    N/A     64  12  13 S10       29.81R
FRIONA 2NE       N/A     62  12  14 SW13      29.81R
GOODLETT 3W      N/A     68  26  20 S10       29.75R
HART 3N          N/A     60  17  18 SW10      29.81R
HEREFORD 2NW     N/A     61  15  16 SW12      29.79S
MEMPHIS 1NE      N/A     70  18  13 S8        29.74S
MULESHOE 2SSW    N/A     63  13  14 S12       29.81R
OLTON 6S         N/A     60  20  21 S14       29.81R
PALO DURO SP     N/A     64  15  15 SW13      29.79F
PAMPA 2E         N/A     63  18  17 S12       29.76S
PLAINVIEW 1S     N/A     63  19  18 S9        29.81R
SILVERTON 7ESE   N/A     59  16  18 S8        29.80R
TULIA 2ENE       N/A     60  20  21 SW7       29.80R
TURKEY 2WSW      N/A     68  21  17 S10       29.76S
UMBARGER 3NNE    N/A     60  17  18 S12       29.79S
$$

TXZ033>036-039>041-045>048-280200
TEXAS TECH WEST TEXAS MESONET/SOUTH PLAINS

CITY           SKY/WX    TMP DP  RH WIND       PRES   REMARKS
AIKEN 3WSW       N/A     62  20  20 S12       29.82R
ANDREWS 2NE      N/A     69  15  12 SW9       29.89R
ANTON 6SSW       N/A     64  18  16 S12       29.83R
BROWNFIELD 2S    N/A     66  22  18 SW15      29.85R
DENVR CTY 7WNW   N/A     63  17  17 SW15      29.86S
GAIL 2ESE        N/A     70  19  14 SW9       29.84R
LAMESA 2SE       N/A     65  24  20 SW10      29.87R
LEVELLAND 4S     N/A     65  13  13 SW20      29.83S
LUBBOCK 3WNW     N/A     67  12  11 SW10      29.83R
MORTON 1ENE      N/A     65  11  11 SW20      29.83R
ODONNELL 1N      N/A     67  19  16 SW15      29.85R
PLAINS 3N        N/A     63  16  16 SW10      29.86R
RALLS 1SE        N/A     63  20  19 S12       29.83R
REESE CENTER     N/A     66  12  12 SW10      29.83R
SEAGRAVES 1SW    N/A     64  20  18 S10       29.86R
SEMINOLE 2NNE    N/A     65  19  17 S8        29.87R
SLATON 2NE       N/A     66  22  18 S14       29.83R
SNYDER 3E        N/A     70  22  16 S8        29.84R
SUNDOWN 8SW      N/A     64  15  14 SW16      29.84F
TAHOKA 3NNE      N/A     67  19  16 S10       29.84R
WOLFFORTH 6SSW   N/A     67  12  11 SW13      29.84R
$$

TXZ031-032-036>038-042>044-280200-
TEXAS TECH WEST TEXAS MESONET/ROLLING PLAINS

CITY           SKY/WX    TMP DP  RH WIND       PRES   REMARKS
ASPERMONT 3NE    N/A     71  25  18 S9        29.80F
FLUVANNA 3WNW    N/A     68  17  14 SW10      29.84R
GRAHAM 5SSW      N/A     70  17  13 SW15G24   29.84R
GUTHRIE 10WSW    N/A     70  21  15 S10       29.79S
HASKELL 1NW      N/A     71  34  25 S5        29.81R
JAYTON 1SSE      N/A     71  20  14 SW5       29.81S
KNOX CITY 3NW    N/A     68  34  28 S10       29.80R
LK A HENRY 1NW   N/A     71  19  13 SW9       29.82R
NORTHFIELD 1S    N/A     70  19  14 S10       29.76S
ODELL 4ENE       N/A     67  35  30 S12       29.78R
PADUCAH 10SW     N/A     70  22  16 S9        29.78S
POST 1NE         N/A     69  19  15 SW8       29.83R
RRING SPRGS 3N   N/A     68  21  17 S10       29.80R
SEYMOUR 3NW      N/A     67  42  40 S8        29.80R
SPUR 1W          N/A     66  21  17 S6        29.79F
WEINERT 2NNE     N/A     69  39  33 S10       29.81R
WHITE RVR 6NE    N/A     67  19  15 S12       29.81S
$$

TXZ052-054-060>062-072-078-127-140-154-169-280200-
TEXAS TECH WEST TEXAS MESONET/PERMIAN BASIN/
CONCHO VALLEY/BIG COUNTRY/EDWARDS PLATEAU

CITY           SKY/WX    TMP DP  RH WIND       PRES   REMARKS
COYANOSA 2N      N/A     75  18  11 W3        29.87R
JUNCTION 1SSW    N/A     75  49  39 SE6       29.88R
MERTZON 3NNE     N/A     72  42  34 S6        29.87R
SAN ANGELO 7NW   N/A     73  41  32 SE7       29.86R
STRLNG CT 4WSW   N/A     70  35  27 S5        29.87R
ST LAWRNCE 5SW   N/A     71  32  23 S6        29.87R
SWEETWATR 11SW   N/A     67  29  23 SE5       29.88R
WALL 1E          N/A     73  42  31 S9        29.87S
$$

TXZ055-058-074-075-080-082-280200-
TEXAS TECH WEST TEXAS MESONET/FAR WEST/SOUTHWEST MOUNTAINS/TRANS PECOS

CITY           SKY/WX    TMP DP  RH WIND       PRES   REMARKS
PRSMN GAP BBNP   N/A     77  22  12 SW5       29.88S
GUADLPE MTN NP   N/A     59  19  21 SW20G30   29.96S
$$




USA.gov is the U.S. government's official web portal to all federal, state and local government web resources and services.